Location: Firdgum
(53.2488°N, 5.5615°E)
Time: 15:16:02
(UTC+00:00)

Cosmos 1603 - Pass Details

Date: 08 December 2019
Orbit: 830 x 860 km, 71.0° (Epoch: 19 January)

Event Time Altitude Azimuth Distance (km) Brightness Sun altitude
Exits shadow 04:49:25 50° 316° (NW) 1,090 3.9 -23.9°
Maximum altitude 04:50:58 78° 242° (WSW) 885 3.6 -23.7°
Drops below altitude 10° 04:56:40 10° 157° (SSE) 2,484 6.5 -22.8°
Sets 04:59:06 0° 156° (SSE) 3,413 7.3 -22.4°
